Location: Essen
(51.4609°N, 7.0127°E)
Time: 13:19:54
(UTC+01:00)

ISS - Pass Details

Date: 12 January 2018
Orbit: 402 x 407 km, 51.6° (Epoch: 22 January)

Event Time Altitude Azimuth Distance (km) Brightness Sun altitude
Exits shadow 06:23:47 37° 199° (SSW) 645 -2.9 -19.3°
Drops below altitude 10° 06:26:41 10° 137° (SE) 1,464 -0.2 -18.8°
Sets 06:28:51 0° 129° (SE) 2,322 1.1 -18.5°
